Location: Drocourt
(49.0571°N, 1.7669°E)
Time: 08:04:20
(UTC+00:00)

Vanguard 2 Rocket - Pass Details

Date: 17 April 2024
Orbit: 554 x 3294 km, 32.9° (Epoch: 24 April)

Event Time Altitude Azimuth Distance (km) Brightness Sun altitude
Rises 02:03:53 0° 265° (W) 7,276 11.1 -23.7°
Reaches altitude 10° 02:09:19 10° 259° (W) 6,230 10.7 -23.2°
Maximum altitude 02:26:12 39° 200° (SSW) 3,672 9.4 -21.4°
Drops below altitude 10° 02:38:21 10° 138° (SE) 4,526 10.4 -20.1°
Sets 02:41:36 0° 130° (SE) 5,182 10.8 -19.7°
